Weather History for St. James, MN

Change the Weather History Date:

Monday, March 25, 2013

  Actual Average Record
Temperature  
Mean Temperature 30 °F -  
Max Temperature 35 °F 47 °F 78 °F (1967)
Min Temperature 26 °F 27 °F 4 °F (1964)
Degree Days  
Heating Degree Days 34    
Moisture  
Dew Point 21 °F    
Average Humidity 68    
Maximum Humidity 86    
Minimum Humidity 56    
Precipitation  
Precipitation 0.00 in - - ()
Sea Level Pressure  
Sea Level Pressure 30.16 in    
Wind  
Wind Speed 14 mph (NW)    
Max Wind Speed 23 mph    
Max Gust Speed 26 mph    
Visibility 10 miles    
Events Snow    
Averages and records for this station are not official NWS values.
T = Trace of Precipitation, MM = Missing Value Source: NWS Daily Summary

Daily Weather History Graph

Daily Weather History Graph

Search for Another Location

Airport:

Trip Planner

Search our weather history database for the weather conditions in past years. The results will help you decide how hot, cold, wet, or windy it might be!

Date:

Astronomy

Mar. 25, 2013 Rise Set
Actual Time 7:11 AM CDT 7:37 PM CDT
Civil Twilight 6:42 AM CDT 8:06 PM CDT
Nautical Twilight 6:08 AM CDT 8:40 PM CDT
Astronomical Twilight 5:33 AM CDT 9:15 PM CDT
Moon 6:07 PM CDT (3/25) 5:58 AM CDT (3/25)
Length of Visible Light 13h 23m
Length of Day
12h 25m
Waxing Gibbous, 96% of the Moon is Illuminated
Mar 25
Waxing Gibbous
Mar 27
Full
Apr 2
Last Quarter
Apr 10
New
Apr 18
First Quarter

Hourly Weather History & Observations

Time (CDT) Temp. Windchill Dew Point Humidity Pressure Visibility Wind Dir Wind Speed Gust Speed Precip Events Conditions
12:14 AM 30.2 °F 19.3 °F 24.8 °F 80% 30.06 in 10.0 mi NNW 15.0 mph - N/A   Overcast
12:35 AM 30.2 °F 20.2 °F 24.8 °F 80% 30.06 in 7.0 mi NW 12.7 mph - N/A   Overcast
12:55 AM 30.2 °F 19.8 °F 24.8 °F 80% 30.06 in 10.0 mi NW 13.8 mph 19.6 mph N/A   Overcast
1:14 AM 30.2 °F 19.8 °F 24.8 °F 80% 30.06 in 7.0 mi NW 13.8 mph - N/A   Overcast
1:35 AM 28.4 °F 18.0 °F 24.8 °F 86% 30.06 in 5.0 mi NW 12.7 mph - N/A Snow Light Snow
1:54 AM 28.4 °F 17.5 °F 24.8 °F 86% 30.06 in 10.0 mi NW 13.8 mph - N/A   Overcast
2:15 AM 28.4 °F 17.5 °F 24.8 °F 86% 30.06 in 5.0 mi NW 13.8 mph - N/A   Overcast
2:34 AM 28.4 °F 18.0 °F 24.8 °F 86% 30.06 in 10.0 mi NW 12.7 mph - N/A Snow Light Snow
2:54 AM 28.4 °F 18.0 °F 24.8 °F 86% 30.06 in 10.0 mi NW 12.7 mph 17.3 mph N/A Snow Light Snow
3:15 AM 28.4 °F 17.5 °F 24.8 °F 86% 30.06 in 10.0 mi NW 13.8 mph - N/A Snow Light Snow
3:35 AM 28.4 °F 18.0 °F 23.0 °F 80% 30.05 in 10.0 mi NW 12.7 mph - N/A   Mostly Cloudy
3:55 AM 28.4 °F 18.0 °F 23.0 °F 80% 30.06 in 10.0 mi NNW 12.7 mph - N/A Snow Light Snow
4:15 AM 28.4 °F 19.1 °F 23.0 °F 80% 30.06 in 10.0 mi NNW 10.4 mph - N/A   Overcast
4:35 AM 28.4 °F 19.1 °F 23.0 °F 80% 30.06 in 10.0 mi NNW 10.4 mph - N/A   Mostly Cloudy
4:55 AM 28.4 °F 19.7 °F 21.2 °F 74% 30.07 in 10.0 mi NW 9.2 mph - N/A   Scattered Clouds
5:15 AM 26.6 °F 18.2 °F 21.2 °F 80% 30.08 in 10.0 mi NW 8.1 mph - N/A   Clear
5:35 AM 26.6 °F - 21.2 °F 80% 30.08 in 10.0 mi Calm Calm - N/A   Clear
5:54 AM 26.6 °F 17.5 °F 19.4 °F 74% 30.09 in 10.0 mi NNW 9.2 mph - N/A   Clear
6:15 AM 26.6 °F 16.8 °F 19.4 °F 74% 30.09 in 10.0 mi NNW 10.4 mph - N/A   Clear
6:35 AM 28.4 °F 18.5 °F 19.4 °F 69% 30.09 in 10.0 mi NNW 11.5 mph - N/A   Clear
6:55 AM 28.4 °F 19.1 °F 19.4 °F 69% 30.10 in 10.0 mi NNW 10.4 mph - N/A   Scattered Clouds
7:14 AM 28.4 °F - 19.4 °F 69% 30.11 in 10.0 mi Calm Calm - N/A   Mostly Cloudy
7:35 AM 28.4 °F 18.0 °F 19.4 °F 69% 30.12 in 10.0 mi NW 12.7 mph - N/A   Mostly Cloudy
7:55 AM 28.4 °F 19.1 °F 19.4 °F 69% 30.13 in 10.0 mi NW 10.4 mph - N/A   Scattered Clouds
8:14 AM 28.4 °F 18.0 °F 19.4 °F 69% 30.13 in 10.0 mi NW 12.7 mph - N/A   Clear
8:35 AM 28.4 °F 18.0 °F 19.4 °F 69% 30.14 in 10.0 mi NW 12.7 mph - N/A   Clear
8:55 AM 28.4 °F 17.0 °F 19.4 °F 69% 30.15 in 10.0 mi NW 15.0 mph - N/A   Clear
9:14 AM 28.4 °F 17.5 °F 19.4 °F 69% 30.15 in 10.0 mi NW 13.8 mph - N/A   Clear
9:35 AM 30.2 °F 19.8 °F 19.4 °F 64% 30.16 in 10.0 mi NW 13.8 mph 18.4 mph N/A   Mostly Cloudy
9:55 AM 30.2 °F 18.9 °F 19.4 °F 64% 30.17 in 10.0 mi NW 16.1 mph 19.6 mph N/A   Overcast
10:15 AM 30.2 °F 19.8 °F 19.4 °F 64% 30.17 in 10.0 mi NW 13.8 mph 20.7 mph N/A   Overcast
10:34 AM 30.2 °F 18.9 °F 19.4 °F 64% 30.17 in 10.0 mi NW 16.1 mph - N/A   Overcast
10:55 AM 30.2 °F 18.1 °F 19.4 °F 64% 30.18 in 10.0 mi NW 18.4 mph - N/A   Overcast
11:15 AM 32.0 °F 20.8 °F 19.4 °F 60% 30.18 in 10.0 mi NNW 17.3 mph 21.9 mph N/A   Overcast
11:35 AM 32.0 °F 20.8 °F 19.4 °F 60% 30.18 in 10.0 mi NW 17.3 mph - N/A   Overcast
11:55 AM 32.0 °F 20.5 °F 19.4 °F 60% 30.18 in 10.0 mi NW 18.4 mph - N/A   Overcast
12:15 PM 33.8 °F 23.2 °F 21.2 °F 60% 30.18 in 10.0 mi NW 17.3 mph - N/A   Overcast
12:35 PM 33.8 °F 23.2 °F 21.2 °F 60% 30.18 in 10.0 mi NW 17.3 mph - N/A   Mostly Cloudy
12:55 PM 33.8 °F 23.2 °F 21.2 °F 60% 30.18 in 10.0 mi NW 17.3 mph 21.9 mph N/A   Scattered Clouds
1:15 PM 35.6 °F 25.5 °F 21.2 °F 56% 30.18 in 10.0 mi NW 17.3 mph - N/A   Clear
1:35 PM 35.6 °F 25.9 °F 21.2 °F 56% 30.18 in 10.0 mi NW 16.1 mph - N/A   Clear
1:54 PM 35.6 °F 25.5 °F 21.2 °F 56% 30.18 in 10.0 mi NW 17.3 mph - N/A   Scattered Clouds
2:15 PM 35.6 °F 25.2 °F 21.2 °F 56% 30.18 in 10.0 mi NW 18.4 mph - N/A   Scattered Clouds
2:35 PM 35.6 °F 25.5 °F 21.2 °F 56% 30.18 in 10.0 mi NW 17.3 mph 21.9 mph N/A   Scattered Clouds
2:54 PM 35.6 °F 25.5 °F 23.0 °F 60% 30.18 in 10.0 mi NW 17.3 mph - N/A   Scattered Clouds
3:15 PM 35.6 °F 25.9 °F 21.2 °F 56% 30.18 in 10.0 mi NW 16.1 mph - N/A   Scattered Clouds
3:35 PM 35.6 °F 25.9 °F 23.0 °F 60% 30.18 in 10.0 mi NW 16.1 mph - N/A   Scattered Clouds
3:54 PM 35.6 °F 26.6 °F 21.2 °F 56% 30.18 in 10.0 mi NW 13.8 mph 23.0 mph N/A   Scattered Clouds
4:15 PM 35.6 °F 25.2 °F 23.0 °F 60% 30.19 in 10.0 mi NW 18.4 mph 23.0 mph N/A   Mostly Cloudy
4:35 PM 35.6 °F 26.6 °F 23.0 °F 60% 30.19 in 10.0 mi NW 13.8 mph - N/A   Mostly Cloudy
4:55 PM 35.6 °F 25.5 °F 21.2 °F 56% 30.20 in 10.0 mi NW 17.3 mph - N/A   Mostly Cloudy
5:15 PM 35.6 °F 25.5 °F 21.2 °F 56% 30.20 in 10.0 mi NW 17.3 mph 21.9 mph N/A   Mostly Cloudy
5:35 PM 35.6 °F 25.2 °F 21.2 °F 56% 30.20 in 10.0 mi NW 18.4 mph 21.9 mph N/A   Mostly Cloudy
5:55 PM 35.6 °F 25.2 °F 23.0 °F 60% 30.20 in 10.0 mi WNW 18.4 mph 24.2 mph N/A   Scattered Clouds
6:14 PM 35.6 °F 25.5 °F 23.0 °F 60% 30.21 in 10.0 mi NW 17.3 mph 24.2 mph N/A   Scattered Clouds
6:35 PM 33.8 °F 22.5 °F 23.0 °F 65% 30.22 in 10.0 mi WNW 19.6 mph 23.0 mph N/A   Clear
6:55 PM 33.8 °F 23.2 °F 23.0 °F 65% 30.22 in 10.0 mi NW 17.3 mph 24.2 mph N/A   Clear
7:15 PM 33.8 °F 23.2 °F 21.2 °F 60% 30.23 in 10.0 mi WNW 17.3 mph 21.9 mph N/A   Clear
7:34 PM 32.0 °F 22.5 °F 21.2 °F 64% 30.24 in 10.0 mi NW 12.7 mph 21.9 mph N/A   Clear
7:55 PM 32.0 °F 20.5 °F 21.2 °F 64% 30.24 in 10.0 mi NW 18.4 mph - N/A   Clear
8:15 PM 30.2 °F 18.1 °F 21.2 °F 69% 30.24 in 10.0 mi WNW 18.4 mph - N/A   Clear
8:35 PM 30.2 °F 18.1 °F 21.2 °F 69% 30.25 in 10.0 mi NW 18.4 mph 23.0 mph N/A   Clear
8:55 PM 30.2 °F 16.8 °F 19.4 °F 64% 30.25 in 10.0 mi WNW 23.0 mph 26.5 mph N/A   Clear
9:15 PM 28.4 °F 16.2 °F 21.2 °F 74% 30.26 in 10.0 mi NW 17.3 mph 21.9 mph N/A   Clear
9:34 PM 28.4 °F 15.8 °F 19.4 °F 69% 30.27 in 10.0 mi NW 18.4 mph 26.5 mph N/A   Clear
9:55 PM 28.4 °F 15.8 °F 19.4 °F 69% 30.27 in 10.0 mi WNW 18.4 mph 21.9 mph N/A   Clear
10:15 PM 28.4 °F 15.8 °F 19.4 °F 69% 30.27 in 10.0 mi NW 18.4 mph 25.3 mph N/A   Clear
10:35 PM 28.4 °F 16.2 °F 17.6 °F 64% 30.27 in 10.0 mi WNW 17.3 mph 21.9 mph N/A   Clear
10:55 PM 26.6 °F 12.7 °F 17.6 °F 69% 30.27 in 10.0 mi NW 20.7 mph 24.2 mph N/A   Clear
11:15 PM 26.6 °F 13.4 °F 17.6 °F 69% 30.28 in 10.0 mi WNW 18.4 mph - N/A   Clear
11:35 PM 26.6 °F 14.7 °F 17.6 °F 69% 30.28 in 10.0 mi WNW 15.0 mph - N/A   Clear
11:55 PM 26.6 °F 15.7 °F 17.6 °F 69% 30.28 in 10.0 mi WNW 12.7 mph 20.7 mph N/A   Clear